Weather Roundup
Issued by NWS

Home | Current Version | Previous Version | Text Only | Print | Product List | Glossary On
Versions: 1 2 3 4 5 6 7 8 9 10 11 12 13 14 15 16 17 18 19 20 21 22 23 24 25 26 27 28 29 30 31 32 33 34 35 36 37 38 39 40 41 42 43 44 45 46 47 48 49 50
000
NZUS93 KARX 170559
HRRWXR

CURRENT HOURLY OBSERVATIONS ACROSS
MUCH OF THE UPPER MISSISSIPPI VALLEY
NATIONAL WEATHER SERVICE LA CROSSE WI
100 AM CDT THU AUG 17 2017


...SOUTHEAST MINNESOTA...


CITY           SKY/WX    TMP DP  RH WIND       PRES   REMARKS
ROCHESTER      CLOUDY    67  65  93 SW15      29.66R
ROCHESTER/MAYO CLOUDY    68  66  94 SW14G20   29.66R
WINONA         CLOUDY    73  72  94 CALM      29.64S
AUSTIN         CLOUDY    66  63  88 SW14      29.65S
ALBERT LEA     CLOUDY    70  68  94 SW9G16    29.64R
DODGE CENTER   CLOUDY    66  64  94 S13       29.63F
PRESTON        PTCLDY    69  65  88 SW9       29.68S
OWATONNA       CLOUDY    68  64  88 S18G24    29.59F
FARIBAULT      CLOUDY    68  66  94 S13G20    29.57F
$$

...ELSEWHERE IN MINNESOTA...


CITY           SKY/WX    TMP DP  RH WIND       PRES   REMARKS
MINNEAPOLIS    CLOUDY    72  67  84 S14       29.54F
INTNL FALLS    LGT RAIN  61  58  90 E6        29.83F FOG
DULUTH         HVY RAIN  60  60 100 NE20G25   29.74F FOG
RED WING       CLEAR     73  70  88 MISG      29.59R
REDWOOD FALLS  HVY RAIN  66  64  93 NW33G47   29.52R VSB 1/2
MANKATO        CLOUDY    67  65  93 SW15G24   29.55R
WORTHINGTON    CLOUDY    65  63  93 W13       29.71R
FAIRMONT       CLOUDY    67  63  87 W13G21    29.64R
$$

...SOUTHWEST WISCONSIN...


CITY           SKY/WX    TMP DP  RH WIND       PRES   REMARKS
LA CROSSE      CLOUDY    77  73  87 S15       29.64S
PRAIRIE DU CHI CLOUDY    76  71  86 S6        29.68F
BOSCOBEL       CLOUDY    77  72  84 S8        29.69F
LONE ROCK      CLOUDY    74  74 100 SE5       29.71F
PLATTEVILLE    MOCLDY    74  74 100 S14       29.74F
FORT MC COY    CLOUDY    70  69  97 SE10      29.67F
CAMP DOUGLAS   CLOUDY    70  70 100 SE7       29.69F
MAUSTON-NEW LI LGT RAIN  71  70  98 SE5       29.70F
VIROQUA        CLOUDY    73  73 100 S8        29.70F
WIS DELLS      CLOUDY    71  69  94 S7        29.73F
$$

...ELSEWHERE IN WISCONSIN...


CITY           SKY/WX    TMP DP  RH WIND       PRES   REMARKS
MILWAUKEE      NOT AVBL
MADISON        NOT AVBL
GREEN BAY      LGT RAIN  67  67 100 CALM      29.78F
EAU CLAIRE     NOT AVBL
BLACK RVR FLS  CLOUDY    71  71 100 CALM      29.66F
MEDFORD        DRIZZLE   63  61  94 E10       29.74F
WAUSAU         LGT RAIN  63  62  97 E15       29.75F FOG
WIS RAPIDS     CLOUDY    66  65  96 SE8       29.74F
MARSHFIELD     CLOUDY    65  63  93 E13       29.72F
RICE LAKE      CLOUDY    67  65  94 E10       29.67F
$$

...NORTHEAST IOWA...


CITY           SKY/WX    TMP DP  RH WIND       PRES   REMARKS
WATERLOO       NOT AVBL
DUBUQUE        NOT AVBL
DECORAH        CLOUDY    72  70  94 SW7       29.69R
MASON CITY     MOCLDY    68  63  84 SW15G23   29.70S
CHARLES CITY   MOCLDY    68  68 100 SW10G20   29.71R
OELWEIN        CLOUDY    72  70  94 SW12G18   29.73R
$$

...ELSEWHERE IN IOWA...


CITY           SKY/WX    TMP DP  RH WIND       PRES   REMARKS
DES MOINES     MOCLDY    71  66  84 W8        29.76S
IOWA CITY      NOT AVBL
FORT DODGE     CLOUDY    66  63  88 W15       29.74R
MARSHALLTOWN   NOT AVBL
CEDAR RAPIDS   NOT AVBL
$$

...NORTHERN ILLINOIS...


CITY           SKY/WX    TMP DP  RH WIND       PRES   REMARKS
CHICAGO-OHARE  CLOUDY    77  72  84 S14       29.80F
CHICAGO-MIDWAY NOT AVBL
MOLINE         NOT AVBL
ROCKFORD       NOT AVBL
PEORIA         NOT AVBL
$$

NOTE: "FAIR" INDICATES FEW OR NO CLOUDS BELOW 12,000 FEET WITH NO
SIGNIFICANT WEATHER AND/OR OBSTRUCTIONS TO VISIBILITY. WIND
SPEEDS ARE IN MILES-PER-HOUR.




USA.gov is the U.S. government's official web portal to all federal, state and local government web resources and services.